Tracking 27420 objects as of 28-May-2023
HD Live streaming from Space Station
objects crossing your sky now

STARLINK-5836

Track STARLINK-5836 now!
10-day predictions
STARLINK-5836 is classified as:


NORAD ID: 56386
Int'l Code: 2023-061N
Perigee: 404.8 km
Apogee: 406.7 km
Inclination: 43.0 °
Period: 92.5 minutes
Semi major axis: 6776 km
RCS: Unknown
Launch date: May 4, 2023
Source: United States (US)
Launch site: AIR FORCE EASTERN TEST RANGE (AFETR)
Your satellite tracking list
Your tracking list is empty




NASA's NSSDC Master Catalog

Two Line Element Set (TLE):
1 56386U 23061N   23148.58334491 -.00941895  00000-0 -14446-1 0  9993
2 56386  42.9982 325.6161 0001444 271.1690 145.3294 15.56221114  4119
Source of the keplerian elements: AFSPC